Retour au catalogue

CZ-6A DEB

ActifPO
NORAD 60697·DEBRIS·🇨🇳 China

Lancé Aug 6, 2024 depuis Taiyuan Satellite Launch Center

Loading…

Prochains Passages (prochaines 24 heures)

TLE

FraisSource: Space-Track

Époque: Sep 14, 2026, 10:43 UTC

1 60697U 24140DA  26257.44658045  .00000264  00000-0  12517-3 0  9998
2 60697  89.0221 267.6120 0059374 270.3576  89.0809 14.16007853108204

Suivez CZ-6A DEB en temps réel avec AllMySat

Download on the App Store